TimeEST,TemperatureF,Dew PointF,Humidity,Sea Level PressureIn,VisibilityMPH,Wind Direction,Wind SpeedMPH,Gust SpeedMPH,PrecipitationIn,Events,Conditions,WindDirDegrees,DateUTC
12:15 AM,57.2,53.6,88,30.09,10.0,SW,8.1,-,N/A,,Scattered Clouds,220,2013-11-07 05:15:00
12:35 AM,57.2,53.6,88,30.08,10.0,SW,12.7,-,N/A,,Mostly Cloudy,220,2013-11-07 05:35:00
12:55 AM,59.0,55.4,88,30.07,10.0,SW,13.8,19.6,N/A,,Mostly Cloudy,220,2013-11-07 05:55:00
1:15 AM,59.0,55.4,88,30.06,10.0,SW,10.4,17.3,N/A,,Mostly Cloudy,220,2013-11-07 06:15:00
1:35 AM,60.8,55.4,82,30.05,10.0,SW,12.7,17.3,N/A,,Overcast,220,2013-11-07 06:35:00
1:55 AM,60.8,55.4,82,30.04,10.0,SSW,12.7,18.4,N/A,,Overcast,210,2013-11-07 06:55:00
2:15 AM,60.8,55.4,82,30.03,10.0,SSW,13.8,21.9,N/A,,Overcast,210,2013-11-07 07:15:00
2:35 AM,60.8,55.4,82,30.01,10.0,SSW,18.4,23.0,N/A,,Overcast,210,2013-11-07 07:35:00
2:55 AM,60.8,55.4,82,30.01,8.0,SSW,21.9,28.8,N/A,,Overcast,210,2013-11-07 07:55:00
3:15 AM,60.8,55.4,82,30.01,5.0,SW,19.6,28.8,N/A,,Overcast,220,2013-11-07 08:15:00
3:35 AM,59.0,55.4,88,30.00,4.0,SW,23.0,27.6,0.02,,Overcast,220,2013-11-07 08:35:00
3:55 AM,59.0,55.4,88,29.98,4.0,SW,18.4,27.6,0.06,,Overcast,220,2013-11-07 08:55:00
4:15 AM,59.0,55.4,88,29.98,4.0,SW,13.8,23.0,0.01,,Mostly Cloudy,220,2013-11-07 09:15:00
4:35 AM,59.0,57.2,94,29.96,5.0,SSW,11.5,-,0.05,,Overcast,210,2013-11-07 09:35:00
4:55 AM,60.8,57.2,88,29.95,4.0,SSW,17.3,23.0,0.08,,Overcast,210,2013-11-07 09:55:00
5:15 AM,60.8,57.2,88,29.94,4.0,WSW,13.8,-,0.02,,Overcast,250,2013-11-07 10:15:00
5:35 AM,60.8,57.2,88,29.93,3.0,WSW,13.8,-,0.11,,Overcast,250,2013-11-07 10:35:00
5:55 AM,60.8,57.2,88,29.92,3.0,WSW,16.1,-,0.18,,Overcast,240,2013-11-07 10:55:00
6:15 AM,60.8,57.2,88,29.91,3.0,WSW,16.1,-,0.15,,Overcast,240,2013-11-07 11:15:00
6:35 AM,60.8,57.2,88,29.90,3.0,SW,18.4,24.2,0.23,,Overcast,230,2013-11-07 11:35:00
6:55 AM,60.8,57.2,88,29.90,5.0,SW,17.3,25.3,0.25,,Mostly Cloudy,230,2013-11-07 11:55:00
7:15 AM,60.8,57.2,88,29.89,7.0,SW,18.4,23.0,N/A,,Mostly Cloudy,230,2013-11-07 12:15:00
7:35 AM,60.8,57.2,88,29.89,4.0,SW,18.4,24.2,0.01,,Overcast,230,2013-11-07 12:35:00
7:55 AM,60.8,57.2,88,29.89,2.5,SW,19.6,27.6,0.02,,Overcast,230,2013-11-07 12:55:00
8:15 AM,60.8,57.2,88,29.88,10.0,SW,20.7,25.3,N/A,,Overcast,230,2013-11-07 13:15:00
8:35 AM,60.8,57.2,88,29.88,3.0,SW,19.6,27.6,0.01,,Overcast,230,2013-11-07 13:35:00
8:55 AM,60.8,57.2,88,29.87,4.0,SW,18.4,25.3,0.03,,Overcast,230,2013-11-07 13:55:00
9:15 AM,60.8,57.2,88,29.85,3.0,SW,15.0,19.6,0.01,,Overcast,220,2013-11-07 14:15:00
9:35 AM,60.8,59.0,94,29.84,5.0,SW,18.4,25.3,0.02,,Overcast,230,2013-11-07 14:35:00
9:55 AM,60.8,59.0,94,29.84,10.0,SW,17.3,-,0.02,,Overcast,230,2013-11-07 14:55:00
10:15 AM,60.8,59.0,94,29.84,0.8,SW,17.3,23.0,N/A,,Overcast,230,2013-11-07 15:15:00
10:35 AM,60.8,57.2,88,29.82,1.0,WSW,16.1,25.3,N/A,,Overcast,240,2013-11-07 15:35:00
10:55 AM,60.8,57.2,88,29.82,2.5,WSW,16.1,21.9,N/A,,Overcast,240,2013-11-07 15:55:00
11:15 AM,60.8,57.2,88,29.81,4.0,WSW,16.1,-,N/A,,Overcast,240,2013-11-07 16:15:00
11:35 AM,60.8,57.2,88,29.78,9.0,SW,15.0,-,N/A,,Overcast,230,2013-11-07 16:35:00
11:55 AM,60.8,57.2,88,29.77,8.0,SW,17.3,21.9,0.01,,Overcast,230,2013-11-07 16:55:00
12:15 PM,60.8,57.2,88,29.76,5.0,WSW,16.1,23.0,0.01,,Overcast,240,2013-11-07 17:15:00
12:35 PM,60.8,57.2,88,29.75,5.0,SW,16.1,21.9,0.04,,Mostly Cloudy,230,2013-11-07 17:35:00
12:55 PM,60.8,57.2,88,29.74,5.0,WSW,15.0,20.7,0.08,,Overcast,240,2013-11-07 17:55:00
1:15 PM,60.8,57.2,88,29.74,5.0,SW,13.8,20.7,0.03,,Overcast,230,2013-11-07 18:15:00
1:35 PM,59.0,57.2,94,29.73,3.0,WSW,13.8,-,0.06,,Overcast,240,2013-11-07 18:35:00
1:55 PM,59.0,57.2,94,29.73,5.0,WSW,11.5,-,0.08,,Overcast,250,2013-11-07 18:55:00
2:15 PM,59.0,55.4,88,29.73,5.0,West,12.7,18.4,0.03,,Overcast,260,2013-11-07 19:15:00
2:35 PM,57.2,55.4,94,29.71,6.0,West,10.4,-,0.07,,Overcast,270,2013-11-07 19:35:00
2:55 PM,57.2,55.4,94,29.72,7.0,West,11.5,-,0.08,,Overcast,270,2013-11-07 19:55:00
3:15 PM,57.2,55.4,94,29.74,8.0,West,12.7,-,0.01,,Mostly Cloudy,280,2013-11-07 20:15:00
3:35 PM,57.2,55.4,94,29.74,9.0,West,10.4,18.4,0.02,,Overcast,270,2013-11-07 20:35:00
3:55 PM,57.2,55.4,94,29.73,9.0,West,10.4,-,0.02,,Overcast,280,2013-11-07 20:55:00
4:15 PM,57.2,55.4,94,29.75,10.0,WNW,16.1,23.0,N/A,,Overcast,290,2013-11-07 21:15:00
4:35 PM,53.6,48.2,82,29.76,9.0,NNW,10.4,20.7,0.01,,Mostly Cloudy,330,2013-11-07 21:35:00
4:55 PM,53.6,48.2,82,29.75,10.0,North,5.8,-,0.01,,Overcast,360,2013-11-07 21:55:00
5:15 PM,53.6,48.2,82,29.75,10.0,NNW,6.9,-,N/A,,Overcast,330,2013-11-07 22:15:00
5:35 PM,51.8,46.4,82,29.76,10.0,NW,11.5,16.1,N/A,,Overcast,320,2013-11-07 22:35:00
5:55 PM,51.8,44.6,76,29.78,10.0,NW,11.5,19.6,N/A,,Overcast,320,2013-11-07 22:55:00
6:15 PM,50.0,42.8,76,29.78,10.0,NW,17.3,24.2,N/A,,Mostly Cloudy,320,2013-11-07 23:15:00
6:35 PM,48.2,39.2,71,29.80,10.0,NW,15.0,21.9,N/A,,Overcast,320,2013-11-07 23:35:00
6:55 PM,48.2,39.2,71,29.79,10.0,NW,16.1,23.0,N/A,,Overcast,320,2013-11-07 23:55:00
7:15 PM,48.2,37.4,66,29.80,10.0,NW,16.1,23.0,N/A,,Overcast,320,2013-11-08 00:15:00
7:35 PM,48.2,37.4,66,29.81,10.0,NW,13.8,28.8,N/A,,Overcast,320,2013-11-08 00:35:00
7:55 PM,46.4,37.4,71,29.81,10.0,NW,16.1,24.2,N/A,,Overcast,320,2013-11-08 00:55:00
8:15 PM,46.4,35.6,66,29.81,10.0,NW,12.7,24.2,N/A,,Scattered Clouds,320,2013-11-08 01:15:00
8:35 PM,46.4,35.6,66,29.82,10.0,NW,15.0,25.3,N/A,,Clear,320,2013-11-08 01:35:00
8:55 PM,46.4,35.6,66,29.82,10.0,NW,15.0,25.3,N/A,,Clear,320,2013-11-08 01:55:00
9:15 PM,46.4,33.8,62,29.83,10.0,NNW,16.1,25.3,N/A,,Clear,330,2013-11-08 02:15:00
9:35 PM,46.4,33.8,62,29.84,10.0,NW,15.0,23.0,N/A,,Clear,320,2013-11-08 02:35:00
9:55 PM,46.4,33.8,62,29.84,10.0,NW,16.1,24.2,N/A,,Clear,320,2013-11-08 02:55:00
10:15 PM,46.4,33.8,62,29.85,10.0,NW,16.1,28.8,N/A,,Clear,320,2013-11-08 03:15:00
10:35 PM,46.4,33.8,62,29.84,10.0,NW,13.8,23.0,N/A,,Clear,320,2013-11-08 03:35:00
10:55 PM,44.6,33.8,66,29.84,10.0,NW,13.8,21.9,N/A,,Clear,320,2013-11-08 03:55:00
11:15 PM,44.6,33.8,66,29.85,10.0,NW,9.2,23.0,N/A,,Clear,310,2013-11-08 04:15:00
11:35 PM,44.6,33.8,66,29.85,10.0,NW,11.5,19.6,N/A,,Clear,310,2013-11-08 04:35:00
11:55 PM,44.6,33.8,66,29.85,10.0,NW,12.7,19.6,N/A,,Clear,320,2013-11-08 04:55:00